Terminal Aerodrome Forecast
Issued by NWS

Home | Current Version | Previous Version | Text Only | Print | Product List | Glossary On
Versions: 1 2 3 4 5 6 7 8 9 10 11 12 13 14 15
000
FTUS46 KSEW 240908 AAA
TAFBFI
TAF AMD
KBFI 240908Z 2409/2506 00000KT P6SM VCFG FEW020
     FM241200 00000KT 6SM BR OVC009
     FM241900 VRB03KT P6SM VCFG OVC013
     FM242100 VRB03KT P6SM FEW017 BKN120
     FM250000 00000KT P6SM FEW060 BKN120=

USA.gov is the U.S. government's official web portal to all federal, state and local government web resources and services.